Hourly Weather Bolshie Gorki

Today, 20 June, Sunday

Time Temperature Precipitation Wind Pressure Humidity
00:00 +18°C° 0 mm 2 mps 754 mmHg 85%
01:00 +17°C° 0 mm 2 mps 755 mmHg 87%
02:00 +17°C° 0 mm 2 mps 755 mmHg 89%
03:00 +17°C° 0 mm 2 mps 755 mmHg 87%
04:00 +19°C° 0 mm 1 mps 755 mmHg 85%
05:00 +20°C° 0 mm 1 mps 755 mmHg 83%
06:00 +22°C° 0 mm 1 mps 754 mmHg 76%
07:00 +24°C° 0 mm 1 mps 754 mmHg 69%
08:00 +26°C° 0 mm 2 mps 754 mmHg 63%
09:00 +27°C° 0 mm 2 mps 754 mmHg 58%
10:00 +28°C° 0 mm 2 mps 754 mmHg 53%
11:00 +29°C° 0 mm 2 mps 754 mmHg 49%
12:00 +30°C° 0 mm 2 mps 754 mmHg 47%
13:00 +30°C° 0 mm 2 mps 753 mmHg 46%
14:00 +31°C° 0 mm 2 mps 753 mmHg 44%
15:00 +31°C° 0 mm 2 mps 753 mmHg 47%
16:00 +30°C° 0 mm 2 mps 753 mmHg 50%
17:00 +30°C° 0 mm 2 mps 753 mmHg 53%
18:00 +28°C° 0 mm 2 mps 753 mmHg 60%
19:00 +26°C° 0 mm 2 mps 752 mmHg 68%
20:00 +24°C° 0 mm 2 mps 752 mmHg 75%
21:00 +23°C° 0 mm 2 mps 752 mmHg 78%
22:00 +21°C° 0 mm 2 mps 752 mmHg 80%
23:00 +20°C° 0 mm 2 mps 753 mmHg 83%

Tomorrow, 21 June, Monday

Time Temperature Precipitation Wind Pressure Humidity
00:00 +20°C° 0 mm 2 mps 753 mmHg 85%
01:00 +19°C° 0 mm 2 mps 753 mmHg 86%
02:00 +18°C° 0 mm 2 mps 753 mmHg 88%
03:00 +19°C° 0 mm 2 mps 753 mmHg 86%
04:00 +20°C° 0 mm 2 mps 753 mmHg 84%
05:00 +21°C° 0 mm 1 mps 753 mmHg 82%
06:00 +23°C° 0 mm 2 mps 753 mmHg 76%
07:00 +24°C° 0 mm 2 mps 753 mmHg 69%
08:00 +26°C° 0 mm 2 mps 754 mmHg 63%
09:00 +27°C° 0 mm 2 mps 753 mmHg 59%
10:00 +28°C° 0 mm 2 mps 753 mmHg 55%
11:00 +29°C° 0 mm 2 mps 753 mmHg 51%
12:00 +30°C° 0 mm 2 mps 753 mmHg 48%
13:00 +30°C° 0 mm 2 mps 753 mmHg 45%
14:00 +30°C° 0 mm 2 mps 753 mmHg 43%
15:00 +30°C° 0 mm 2 mps 753 mmHg 46%
16:00 +30°C° 0 mm 1 mps 752 mmHg 48%
17:00 +30°C° 0 mm 1 mps 752 mmHg 51%
18:00 +28°C° 0 mm 1 mps 752 mmHg 57%
19:00 +26°C° 0 mm 1 mps 752 mmHg 64%
20:00 +24°C° 0 mm 1 mps 752 mmHg 70%
21:00 +23°C° 0 mm 1 mps 752 mmHg 74%
22:00 +22°C° 0 mm 1 mps 753 mmHg 78%
23:00 +20°C° 0 mm 2 mps 753 mmHg 82%

Day after tomorrow, 22 June, Tuesday

Time Temperature Precipitation Wind Pressure Humidity
00:00 +19°C° 0 mm 2 mps 753 mmHg 85%
01:00 +19°C° 0 mm 2 mps 753 mmHg 88%
02:00 +19°C° 0 mm 2 mps 753 mmHg 91%
03:00 +19°C° 0 mm 2 mps 753 mmHg 90%
04:00 +21°C° 0 mm 1 mps 753 mmHg 88%
05:00 +22°C° 0 mm 1 mps 753 mmHg 87%
06:00 +24°C° 0 mm 1 mps 753 mmHg 80%
07:00 +25°C° 0 mm 2 mps 753 mmHg 73%
08:00 +27°C° 0 mm 2 mps 753 mmHg 66%
09:00 +29°C° 0 mm 2 mps 753 mmHg 60%
10:00 +30°C° 0 mm 2 mps 753 mmHg 53%
11:00 +31°C° 0 mm 3 mps 753 mmHg 47%
12:00 +33°C° 0 mm 3 mps 753 mmHg 45%
13:00 +33°C° 0 mm 3 mps 753 mmHg 43%
14:00 +34°C° 0 mm 3 mps 753 mmHg 41%
15:00 +34°C° 0 mm 3 mps 752 mmHg 44%
16:00 +33°C° 0 mm 3 mps 752 mmHg 46%
17:00 +32°C° 0 mm 2 mps 752 mmHg 49%
18:00 +30°C° 0 mm 2 mps 752 mmHg 57%
19:00 +27°C° 0 mm 2 mps 752 mmHg 64%
20:00 +25°C° 0 mm 2 mps 752 mmHg 71%
21:00 +24°C° 0 mm 2 mps 752 mmHg 76%
22:00 +23°C° 0 mm 2 mps 752 mmHg 80%
23:00 +21°C° 0 mm 2 mps 752 mmHg 84%

23 June, Wednesday

Time Temperature Precipitation Wind Pressure Humidity
00:00 +21°C° 0 mm 2 mps 753 mmHg 88%
01:00 +21°C° 0 mm 2 mps 753 mmHg 91%
02:00 +20°C° 0 mm 2 mps 753 mmHg 94%
03:00 +21°C° 0 mm 2 mps 753 mmHg 92%
04:00 +23°C° 0 mm 2 mps 753 mmHg 90%
05:00 +23°C° 0 mm 1 mps 753 mmHg 88%
06:00 +25°C° 0 mm 2 mps 753 mmHg 81%
07:00 +27°C° 0 mm 2 mps 753 mmHg 73%
08:00 +29°C° 0 mm 2 mps 753 mmHg 66%
09:00 +30°C° 0 mm 3 mps 753 mmHg 60%
10:00 +31°C° 0 mm 3 mps 753 mmHg 54%
11:00 +34°C° 0 mm 3 mps 753 mmHg 47%
12:00 +34°C° 0 mm 3 mps 753 mmHg 45%
13:00 +35°C° 0 mm 3 mps 753 mmHg 42%
14:00 +35°C° 0 mm 3 mps 753 mmHg 40%
15:00 +35°C° 0 mm 3 mps 753 mmHg 43%
16:00 +35°C° 0 mm 2 mps 752 mmHg 46%
17:00 +34°C° 0 mm 2 mps 752 mmHg 48%
18:00 +31°C° 0 mm 2 mps 752 mmHg 56%
19:00 +29°C° 0 mm 2 mps 752 mmHg 63%
20:00 +27°C° 0 mm 2 mps 752 mmHg 71%
21:00 +26°C° 0 mm 2 mps 752 mmHg 72%
22:00 +25°C° 0 mm 2 mps 752 mmHg 74%
23:00 +24°C° 0 mm 2 mps 752 mmHg 76%

24 June, Thursday

Time Temperature Precipitation Wind Pressure Humidity
00:00 +23°C° 0.2 mm 2 mps 753 mmHg 79%
01:00 +21°C° 0.2 mm 2 mps 753 mmHg 82%
02:00 +21°C° 0.2 mm 2 mps 753 mmHg 85%
03:00 +21°C° 0 mm 2 mps 753 mmHg 84%
04:00 +23°C° 0 mm 2 mps 753 mmHg 84%
05:00 +23°C° 0 mm 1 mps 753 mmHg 83%
06:00 +25°C° 0 mm 2 mps 753 mmHg 75%
07:00 +27°C° 0 mm 2 mps 753 mmHg 68%
08:00 +29°C° 0 mm 2 mps 753 mmHg 60%
09:00 +31°C° 0 mm 2 mps 753 mmHg 55%
10:00 +32°C° 0 mm 2 mps 753 mmHg 50%
11:00 +34°C° 0 mm 2 mps 753 mmHg 45%
12:00 +35°C° 0 mm 2 mps 753 mmHg 44%
13:00 +35°C° 0 mm 2 mps 753 mmHg 42%
14:00 +36°C° 0 mm 2 mps 752 mmHg 40%
15:00 +35°C° 0 mm 2 mps 752 mmHg 43%
16:00 +35°C° 0 mm 2 mps 752 mmHg 45%
17:00 +34°C° 0 mm 2 mps 752 mmHg 48%
18:00 +31°C° 0 mm 2 mps 752 mmHg 55%
19:00 +29°C° 0 mm 2 mps 751 mmHg 62%
20:00 +27°C° 0 mm 1 mps 751 mmHg 69%
21:00 +26°C° 0.1 mm 1 mps 751 mmHg 73%
22:00 +25°C° 0.1 mm 1 mps 752 mmHg 77%
23:00 +24°C° 0.1 mm 1 mps 752 mmHg 81%

25 June, Friday

Time Temperature Precipitation Wind Pressure Humidity
00:00 +23°C° 0 mm 1 mps 752 mmHg 84%
01:00 +23°C° 0 mm 1 mps 752 mmHg 86%
02:00 +22°C° 0 mm 1 mps 752 mmHg 89%
03:00 +23°C° 0 mm 1 mps 752 mmHg 87%
04:00 +24°C° 0 mm 1 mps 752 mmHg 84%
05:00 +24°C° 0 mm 1 mps 751 mmHg 82%
06:00 +26°C° 0 mm 1 mps 752 mmHg 74%
07:00 +28°C° 0 mm 1 mps 752 mmHg 67%
08:00 +30°C° 0 mm 2 mps 752 mmHg 59%
09:00 +31°C° 0 mm 2 mps 752 mmHg 54%
10:00 +34°C° 0 mm 2 mps 752 mmHg 50%
11:00 +35°C° 0 mm 2 mps 752 mmHg 45%
12:00 +35°C° 0 mm 2 mps 751 mmHg 42%
13:00 +36°C° 0 mm 3 mps 751 mmHg 40%
14:00 +36°C° 0 mm 3 mps 751 mmHg 37%
15:00 +34°C° 0.1 mm 3 mps 751 mmHg 45%
16:00 +31°C° 0.1 mm 3 mps 751 mmHg 53%
17:00 +29°C° 0.1 mm 3 mps 750 mmHg 61%
18:00 +27°C° 0.6 mm 3 mps 750 mmHg 71%
19:00 +24°C° 0.6 mm 3 mps 751 mmHg 81%
20:00 +20°C° 0.6 mm 3 mps 751 mmHg 91%
21:00 +20°C° 0.1 mm 2 mps 751 mmHg 93%
22:00 +19°C° 0.1 mm 2 mps 750 mmHg 94%
23:00 +19°C° 0.1 mm 2 mps 750 mmHg 96%
Show more